CYHA

Quaqtaq Airport

ICAO Code CYHA
IATA Code YQC
Name Quaqtaq Airport
Location Quaqtaq, Quebec, CA
Elevation 106 Feet / 32.3 Meters
Latitude 61.04638889
Longitude -69.61777778
METAR CYHA 012100Z 30007KT 6SM BR FEW003 OVC024 04/04 A2963 RMK ST2SC6 LST STFD OBS/NXT 021200Z SLP036
Extra information Display Charts and CFS
Display NOTAMS
Runway Length Width Surface Elevation
36 3520 ft 100 ft GRAVEL 104 ft
18 3520 ft 100 ft GRAVEL 95 ft